Location: Unspecified
(48.8656°N, 0.0000°E)
Time: 09:55:44
(UTC+00:00)

Transit 2A Rocket - Pass Details

Date: 25 June 2019
Orbit: 588 x 915 km, 66.7° (Epoch: 18 July)

Event Time Altitude Azimuth Distance (km) Brightness Sun altitude
Rises 18:44:34 0° 318° (NW) 3,289 9.6 10.9°
Reaches altitude 10° 18:47:16 10° 310° (NW) 2,298 9.4 10.5°
Maximum altitude 18:51:52 32° 248° (WSW) 1,210 6.8 9.8°
Drops below altitude 10° 18:56:05 10° 185° (S) 2,096 7.1 9.2°
Sets 18:58:28 0° 176° (S) 2,956 7.7 8.8°
